(19896) = 1999 RZ113 = 5366 T-2

Discovered at Palomar on 1973-09-30 by C. J. van Houten, I. van Houten-Groeneveld, and T. Gehrels.

Orbit

Orbit type: Main Belt

Note: WebGL enabled browser required.

epoch2024-03-31.0
epoch JD2460400.5
perihelion date2019-04-23.79655
perihelion JD2458597.29656
argument of perihelion (°)341.28058
ascending node (°)257.51202
inclination (°)7.59870
eccentricity0.0572060
perihelion distance (AU)2.8519289
Tisserand w.r.t. Jupiter3.2
ΔV w.r.t. Earth (km/sec)10.8
semimajor axis (AU)3.0249758
mean anomaly (°)337.80490
mean daily motion (°/day)0.18733600
aphelion distance (AU)3.198
period (years)5.26
P-vector [x]-0.51538588
P-vector [y]-0.76839810
P-vector [z]-0.37939657
Q-vector [x]0.84717719
Q-vector [y]-0.52354900
Q-vector [z]-0.09048344
absolute magnitude14.35
phase slope0.15
uncertainty0
referenceE2024-H23
observations used1522
oppositions22
arc length (days)18472
first opposition used1973
last opposition used2024
residual rms (arc-secs)0.64
perturbers coarse indicatorM-v
perturbers precise indicator003Ek
first observation date used1973-09-20.0
last observation date used2024-04-17.0
computer nameMPCLINUX
JD of orbit computation2456406.189236
perihelion JD uncertainty (days)2.7404E-04
argument of perihelion uncertainty (°)6.6679E-05
ascending node uncertainty (°)4.3991E-05
inclination uncertainty (°)4.7876E-06
eccentricity uncertainty 5.0326E-08
perihelion distance uncertainty (AU)1.6273E-07
Minimum Orbit Intersection Distances (in AU)
for orbit epoch: 2460400.5, reference: E2024-H23
Mercury2.38841
Venus2.12832
Earth1.84026
Mars1.29252
Jupiter1.82588
Saturn5.864
Uranus15.4841
Neptune26.6569

Observations

1527 total observations over interval: 1973 09 20.21458 – 2024 03 19.042752
These data are available for download (format description).

Date (UT) J2000 RA J2000 Dec Magn Location Ref
1973 09 20.21458 00 20 24.52 +13 44 02.3   675 – Palomar Mountain MPS 6454
1973 09 29.24062 00 13 38.41 +12 58 15.2   675 – Palomar Mountain MPS 6454
1973 09 29.30486 00 13 35.32 +12 57 52.3   675 – Palomar Mountain MPS 6454
1973 09 30.19722 00 12 55.30 +12 52 53.7 18.8   675 – Palomar Mountain MPS 6454
1973 09 30.35295 00 12 48.15 +12 52 00.7   675 – Palomar Mountain MPS 6454
1973 10 04.27708 00 09 53.73 +12 29 15.6   675 – Palomar Mountain MPS 6454
1973 10 04.33906 00 09 50.88 +12 28 51.2   675 – Palomar Mountain MPS 6454
1973 10 05.36632 00 09 06.08 +12 22 44.4   675 – Palomar Mountain MPS 6454
1973 10 05.42847 00 09 03.34 +12 22 22.1   675 – Palomar Mountain MPS 6454
1998 06 24.16827 16 27 56.20 -22 01 00.8 18.9   704 – Lincoln Laboratory ETS, New Mexico MPS 12904
1998 06 24.18672 16 27 55.41 -22 00 54.3 18.9   704 – Lincoln Laboratory ETS, New Mexico MPS 12904
1998 06 24.20500 16 27 54.66 -22 00 50.9 19.1   704 – Lincoln Laboratory ETS, New Mexico MPS 12904
1998 06 24.22328 16 27 53.43 -22 00 48.6 19.1   704 – Lincoln Laboratory ETS, New Mexico MPS 12904
1999 09 09.19355 22 35 08.41 +03 09 54.9 19.1   704 – Lincoln Laboratory ETS, New Mexico MPS 6304
1999 09 09.20743 22 35 07.81 +03 09 50.3 19.5   704 – Lincoln Laboratory ETS, New Mexico MPS 6304
1999 09 09.22173 22 35 07.09 +03 09 45.8 19.2   704 – Lincoln Laboratory ETS, New Mexico MPS 6304
1999 09 09.23565 22 35 06.46 +03 09 42.4 18.8   704 – Lincoln Laboratory ETS, New Mexico MPS 6304
1999 09 09.24957 22 35 05.82 +03 09 38.5 19.3   704 – Lincoln Laboratory ETS, New Mexico MPS 6304
1999 09 09.33842 22 35 01.80 +03 09 12.8 19.0   704 – Lincoln Laboratory ETS, New Mexico MPS 6304
1999 09 09.35228 22 35 01.17 +03 09 08.5 19.1   704 – Lincoln Laboratory ETS, New Mexico MPS 6305
1999 09 09.38049 22 34 59.92 +03 09 00.8 19.5   704 – Lincoln Laboratory ETS, New Mexico MPS 6305
1999 09 09.39444 22 34 59.27 +03 08 58.0 19.7   704 – Lincoln Laboratory ETS, New Mexico MPS 6305
1999 09 10.33111 22 34 18.13 +03 04 23.6 19.2   704 – Lincoln Laboratory ETS, New Mexico MPS 6305
1999 09 10.34232 22 34 17.61 +03 04 20.3 18.5   704 – Lincoln Laboratory ETS, New Mexico MPS 6305
1999 09 10.35342 22 34 17.15 +03 04 18.1 19.0   704 – Lincoln Laboratory ETS, New Mexico MPS 6305
1999 09 11.18703 22 33 41.14 +03 00 10.6 19.3   704 – Lincoln Laboratory ETS, New Mexico MPS 6305
1999 09 11.20166 22 33 40.47 +03 00 06.7 19.2   704 – Lincoln Laboratory ETS, New Mexico MPS 6305
1999 09 11.21605 22 33 39.82 +03 00 03.2 19.0   704 – Lincoln Laboratory ETS, New Mexico MPS 6305
1999 09 11.23061 22 33 39.20 +02 59 58.9 19.2   704 – Lincoln Laboratory ETS, New Mexico MPS 6305
1999 09 11.24479 22 33 38.52 +02 59 54.2 19.6   704 – Lincoln Laboratory ETS, New Mexico MPS 6305
1999 09 13.18634 22 32 15.40 +02 50 14.2 19.2   704 – Lincoln Laboratory ETS, New Mexico MPS 6305
1999 09 13.19833 22 32 14.98 +02 50 09.3 19.5   704 – Lincoln Laboratory ETS, New Mexico MPS 6305
1999 09 13.21017 22 32 14.41 +02 50 07.0 19.0   704 – Lincoln Laboratory ETS, New Mexico MPS 6305
1999 09 30.16439 22 22 05.17 +01 23 14.4 19.0 R 703 – Catalina Sky Survey MPS 6970
1999 09 30.17690 22 22 04.72 +01 23 10.2 18.5 R 703 – Catalina Sky Survey MPS 6970
1999 09 30.18939 22 22 04.44 +01 23 05.7 19.4 R 703 – Catalina Sky Survey MPS 6970
1999 09 30.20188 22 22 04.09 +01 23 02.9 19.0 R 703 – Catalina Sky Survey MPS 6970
1999 10 09.10061 22 18 41.65 +00 40 57.1 18.5   704 – Lincoln Laboratory ETS, New Mexico MPS 6970
1999 10 09.11600 22 18 41.38 +00 40 53.6 19.7   704 – Lincoln Laboratory ETS, New Mexico MPS 6970
1999 10 09.13148 22 18 41.09 +00 40 49.2 19.4   704 – Lincoln Laboratory ETS, New Mexico MPS 6970
1999 10 09.14689 22 18 40.75 +00 40 45.0 19.5   704 – Lincoln Laboratory ETS, New Mexico MPS 6970
1999 10 09.16234 22 18 40.48 +00 40 40.9 19.3   704 – Lincoln Laboratory ETS, New Mexico MPS 6970
1999 10 11.22208 22 18 07.75 +00 31 45.2 19.0 I 568 – Maunakea MPS 11506
1999 10 11.26211 22 18 07.12 +00 31 35.3   568 – Maunakea MPS 11506
1999 10 11.32765 22 18 06.07 +00 31 18.5   568 – Maunakea MPS 11506
1999 10 13.214820 22 17 40.879 +00 23 26.05 19.47 V 645 – Apache Point-Sloan Digital Sky Survey MPS 80822
1999 10 13.218292 22 17 40.833 +00 23 25.21 20.34   645 – Apache Point-Sloan Digital Sky Survey MPS 80822
1999 10 16.305430 22 17 09.604 +00 11 17.12 19.46 V 645 – Apache Point-Sloan Digital Sky Survey MPS 80822
1999 10 16.308902 22 17 09.577 +00 11 16.37 20.32   645 – Apache Point-Sloan Digital Sky Survey MPS 80822
2000 10 25.36446 04 07 32.77 +25 08 50.8 18.8   704 – Lincoln Laboratory ETS, New Mexico MPS 21758
2000 10 25.41175 04 07 31.01 +25 08 44.5 19.6   704 – Lincoln Laboratory ETS, New Mexico MPS 21758
2000 10 25.42533 04 07 30.59 +25 08 41.8 19.2   704 – Lincoln Laboratory ETS, New Mexico MPS 21758
2000 11 03.28065 04 01 34.07 +24 43 14.7 18.4   704 – Lincoln Laboratory ETS, New Mexico MPS 21758
2000 11 03.29426 04 01 33.41 +24 43 12.4 18.9   704 – Lincoln Laboratory ETS, New Mexico MPS 21758
2000 11 03.30789 04 01 32.77 +24 43 10.1 19.6   704 – Lincoln Laboratory ETS, New Mexico MPS 21758
2000 11 03.33510 04 01 31.51 +24 43 04.7 19.0   704 – Lincoln Laboratory ETS, New Mexico MPS 21758
2000 11 05.31860 04 00 01.35 +24 36 23.8 19.0   704 – Lincoln Laboratory ETS, New Mexico MPS 21758
2000 11 05.33235 04 00 00.66 +24 36 20.9 19.2   704 – Lincoln Laboratory ETS, New Mexico MPS 21758
2000 11 05.34617 04 00 00.00 +24 36 16.6 18.6   704 – Lincoln Laboratory ETS, New Mexico MPS 21758
2000 11 05.36171 03 59 59.22 +24 36 13.4 19.0   704 – Lincoln Laboratory ETS, New Mexico MPS 21758
2000 11 05.37709 03 59 58.45 +24 36 11.6 19.7   704 – Lincoln Laboratory ETS, New Mexico MPS 21758
2000 11 20.29352 03 47 29.38 +23 35 47.3 18.8   704 – Lincoln Laboratory ETS, New Mexico MPS 23120
2000 11 20.31074 03 47 28.47 +23 35 42.8 18.8   704 – Lincoln Laboratory ETS, New Mexico MPS 23120
2000 11 20.32574 03 47 27.71 +23 35 38.7 18.9   704 – Lincoln Laboratory ETS, New Mexico MPS 23120
2000 11 20.34076 03 47 26.88 +23 35 34.2 18.6   704 – Lincoln Laboratory ETS, New Mexico MPS 23120
2000 11 20.35579 03 47 26.07 +23 35 29.8 19.0   704 – Lincoln Laboratory ETS, New Mexico MPS 23120
2000 11 24.22933 03 44 04.73 +23 17 34.2 18.4 R 699 – Lowell Observatory-LONEOS MPS 23120
2000 11 24.25274 03 44 03.49 +23 17 28.0   699 – Lowell Observatory-LONEOS MPS 23120
2000 11 24.27620 03 44 02.28 +23 17 20.9   699 – Lowell Observatory-LONEOS MPS 23120
2000 11 24.29973 03 44 01.00 +23 17 15.0   699 – Lowell Observatory-LONEOS MPS 23120
2000 11 29.23131 03 39 50.30 +22 53 40.4 18.9   704 – Lincoln Laboratory ETS, New Mexico MPS 23120
2000 11 29.24712 03 39 49.50 +22 53 35.6 18.7   704 – Lincoln Laboratory ETS, New Mexico MPS 23120
2000 11 29.26375 03 39 48.66 +22 53 30.9 19.2   704 – Lincoln Laboratory ETS, New Mexico MPS 23120
2000 11 29.27961 03 39 47.86 +22 53 26.2 19.2   704 – Lincoln Laboratory ETS, New Mexico MPS 23120
2000 11 29.29464 03 39 47.09 +22 53 21.6 18.9   704 – Lincoln Laboratory ETS, New Mexico MPS 23120
2002 01 14.38720 09 19 40.36 +06 23 58.3 19.1   704 – Lincoln Laboratory ETS, New Mexico MPS 48181
2002 01 14.40242 09 19 39.78 +06 23 56.9 19.7   704 – Lincoln Laboratory ETS, New Mexico MPS 48181
2002 01 14.41757 09 19 39.16 +06 23 58.3 19.7   704 – Lincoln Laboratory ETS, New Mexico MPS 48181
2002 01 14.43270 09 19 38.58 +06 23 59.2 19.7   704 – Lincoln Laboratory ETS, New Mexico MPS 48181
2002 01 14.44886 09 19 37.89 +06 23 57.8 19.8   704 – Lincoln Laboratory ETS, New Mexico MPS 48181
2002 02 08.31332 08 59 59.27 +07 04 28.5 19.2   704 – Lincoln Laboratory ETS, New Mexico MPS 50930
2002 02 08.32781 08 59 58.52 +07 04 31.1 19.6   704 – Lincoln Laboratory ETS, New Mexico MPS 50930
2002 02 08.34232 08 59 57.74 +07 04 33.3 19.5   704 – Lincoln Laboratory ETS, New Mexico MPS 50930
2002 02 08.35744 08 59 56.97 +07 04 35.5 19.7   704 – Lincoln Laboratory ETS, New Mexico MPS 50930
2002 02 11.31907 08 57 30.20 +07 12 55.0 19.1   704 – Lincoln Laboratory ETS, New Mexico MPS 50930
2002 02 11.33354 08 57 29.44 +07 12 57.5 19.1   704 – Lincoln Laboratory ETS, New Mexico MPS 50930
